Greybull, WY

6:15 AM MDT on May 23, 2017 (GMT -0600)
South Big Horn County

Weather History for KGEY - January, 2014

Change the Weather History Date:

Wednesday, January 1, 2014

  Actual Average Record
Temperature  
Mean Temperature 28 °F 16 °F  
Max Temperature 38 °F 28 °F 65 °F (2003)
Min Temperature 17 °F 4 °F -22 °F (2011)
Degree Days  
Heating Degree Days 37 49  
Month to date heating degree days 37 49  
Since 1 July heating degree days 3152 3372  
Cooling Degree Days 0 0  
Month to date cooling degree days 0 0  
Year to date cooling degree days 0 0  
Moisture  
Dew Point 22 °F    
Average Humidity 72    
Maximum Humidity 85    
Minimum Humidity 59    
Precipitation  
Precipitation T in 0.01 in 0.01 in (1999)
Month to date precipitation T 0.01  
Year to date precipitation T 0.01  
Sea Level Pressure  
Sea Level Pressure 30.29 in    
Wind  
Wind Speed 8 mph (West)    
Max Wind Speed 25 mph    
Max Gust Speed 30 mph    
Visibility 10 miles    
Events      
T = Trace of Precipitation, MM = Missing Value Source: NWS Daily Summary

Daily Weather History Graph

Daily Weather History Graph

Search for Another Location

Airport or City:

Trip Planner

Search our weather history database for the weather conditions in past years. The results will help you decide how hot, cold, wet, or windy it might be!

Date:

Astronomy

Jan. 01, 2014 Rise Set
Actual Time 7:48 AM MST 4:43 PM MST
Civil Twilight 7:15 AM MST 5:16 PM MST
Nautical Twilight 6:38 AM MST 5:53 PM MST
Astronomical Twilight 6:03 AM MST 6:28 PM MST
Moon 7:39 AM MST (1/1) 5:35 PM MST (1/1)
Length of Visible Light 10h 00m
Length of Day
8h 54m
New Moon, 0% of the Moon is Illuminated
Jan 1
New Moon
Jan 7
First Quarter
Jan 15
Full
Jan 23
Last Quarter
Jan 30
New

Hourly Weather History & Observations

Time (MST) Temp. Windchill Dew Point Humidity Pressure Visibility Wind Dir Wind Speed Gust Speed Precip Events Conditions
12:53 AM 30.0 °F 24.1 °F 24.1 °F 79% 30.10 in 10.0 mi NW 5.8 mph - N/A   Clear
1:53 AM 33.1 °F 30.0 °F 26.1 °F 75% 30.10 in 10.0 mi Variable 3.5 mph - N/A   Mostly Cloudy
2:53 AM 30.9 °F 27.5 °F 25.0 °F 79% 30.14 in 10.0 mi West 3.5 mph - N/A   Overcast
3:53 AM 30.9 °F - 26.1 °F 82% 30.15 in 10.0 mi Calm Calm - N/A   Overcast
4:53 AM 30.9 °F - 25.0 °F 79% 30.16 in 10.0 mi Calm Calm - 0.00 in   Overcast
5:53 AM 28.9 °F 22.8 °F 24.1 °F 82% 30.20 in 10.0 mi West 5.8 mph - N/A   Clear
6:53 AM 30.0 °F 21.7 °F 23.0 °F 75% 30.20 in 10.0 mi NW 9.2 mph - N/A   Scattered Clouds
7:53 AM 28.9 °F 18.2 °F 21.0 °F 72% 30.24 in 10.0 mi WNW 13.8 mph - N/A   Partly Cloudy
8:53 AM 32.0 °F 22.5 °F 21.0 °F 64% 30.26 in 10.0 mi WNW 12.7 mph - N/A   Clear
9:53 AM 36.0 °F 26.7 °F 24.1 °F 62% 30.30 in 10.0 mi NW 15.0 mph - N/A   Clear
10:53 AM 37.0 °F 25.4 °F 24.1 °F 59% 30.34 in 10.0 mi NW 25.3 mph - N/A   Clear
11:53 AM 37.0 °F 27.0 °F 25.0 °F 62% 30.34 in 10.0 mi WNW 18.4 mph - N/A   Clear
12:53 PM 37.0 °F 28.5 °F 25.0 °F 62% 30.35 in 10.0 mi WNW 13.8 mph - N/A   Partly Cloudy
1:53 PM 35.1 °F 27.4 °F 25.0 °F 67% 30.34 in 10.0 mi West 10.4 mph - N/A   Partly Cloudy
2:53 PM 35.1 °F 30.1 °F 25.0 °F 67% 30.35 in 10.0 mi West 5.8 mph - N/A   Overcast
3:53 PM 34.0 °F 26.6 °F 24.1 °F 67% 30.35 in 10.0 mi WSW 9.2 mph - N/A   Partly Cloudy
4:53 PM 34.0 °F - 24.1 °F 67% 30.36 in 10.0 mi Calm Calm - N/A   Overcast
5:53 PM 30.0 °F 25.2 °F 23.0 °F 75% 30.38 in 10.0 mi SE 4.6 mph - N/A   Clear
6:53 PM 27.0 °F 20.5 °F 21.0 °F 78% 30.39 in 10.0 mi SE 5.8 mph - N/A   Clear
7:53 PM 26.1 °F 19.4 °F 19.9 °F 78% 30.38 in 10.0 mi East 5.8 mph - N/A   Clear
8:53 PM 23.0 °F 17.0 °F 18.0 °F 81% 30.38 in 10.0 mi ESE 4.6 mph - N/A   Clear
9:53 PM 19.0 °F 13.9 °F 15.1 °F 85% 30.38 in 10.0 mi SE 3.5 mph - N/A   Clear
10:53 PM 19.0 °F 12.3 °F 15.1 °F 85% 30.37 in 10.0 mi SE 4.6 mph - N/A   Clear
11:53 PM 17.1 °F 10.0 °F 12.0 °F 81% 30.38 in 10.0 mi SE 4.6 mph - N/A   Clear